Orbital Elements at Epoch 2457262.5 (2015-Aug-28.0) TDB
Reference: JPL 22 (heliocentric ecliptic J2000)
Element | Value | Uncertainty (1-sigma) | Units |
e | .153784445570409 | 8.194e-07 | |
a | 3.095929042189836 | 5.782e-07 | au |
q | 2.619823310911345 | 2.9645e-06 | au |
i | 21.41695747394586 | 1.5746e-05 | deg |
node | 270.6516569004608 | 0.00011696 | deg |
peri | 58.56915804482286 | 0.00016211 | deg |
M | 343.0000762445442 | 0.00014267 | deg |
tp | 2457356.457055272656 (2015-Nov-29.95705527) | 0.00081096 | TDB |
period | 1989.687741234773 5.45 | 0.00055739 1.526e-06 | d yr |
n | .1809329135116392 | 5.0687e-08 | deg/d |
Q | 3.572034773468327 | 6.6711e-07 | au |
|
| | Orbit Determination Parameters
Additional Information
|